Time,TemperatureF,DewpointF,PressureIn,WindDirection,WindDirectionDegrees,WindSpeedMPH,WindSpeedGustMPH,Humidity,HourlyPrecipIn,Conditions,Clouds,dailyrainin,SolarRadiationWatts/m^2,SoftwareType,DateUTC
2013-03-03 00:01:00,39.0,29.0,-100.00,ENE,75,3.0,17.0,68,0.00,,,0.00,0.000000,,2013-03-03 08:01:00,
2013-03-03 00:11:00,39.0,29.0,-100.00,ENE,75,3.0,17.0,68,0.00,,,0.00,0.000000,,2013-03-03 08:11:00,
2013-03-03 00:32:00,37.0,28.0,-100.00,WSW,241,6.0,14.0,70,0.00,,,0.00,0.000000,,2013-03-03 08:32:00,
2013-03-03 00:42:00,37.0,28.0,-100.00,WSW,241,6.0,14.0,70,0.00,,,0.00,0.000000,,2013-03-03 08:42:00,
2013-03-03 00:54:00,37.0,28.0,-100.00,WSW,241,6.0,14.0,70,0.00,,,0.00,0.000000,,2013-03-03 08:54:00,
2013-03-03 01:01:00,37.0,28.0,-100.00,WSW,241,6.0,14.0,70,0.00,,,0.00,0.000000,,2013-03-03 09:01:00,
2013-03-03 01:11:00,37.0,28.0,-100.00,WSW,241,6.0,14.0,70,0.00,,,0.00,0.000000,,2013-03-03 09:11:00,
2013-03-03 01:32:00,39.0,27.0,-100.00,SW,221,8.0,15.0,63,0.00,,,0.00,0.000000,,2013-03-03 09:32:00,
2013-03-03 01:42:00,39.0,27.0,-100.00,SW,221,8.0,15.0,63,0.00,,,0.00,0.000000,,2013-03-03 09:42:00,
2013-03-03 01:52:00,39.0,27.0,-100.00,SW,221,8.0,15.0,63,0.00,,,0.00,0.000000,,2013-03-03 09:52:00,
2013-03-03 02:01:00,39.0,27.0,-100.00,SW,221,8.0,15.0,63,0.00,,,0.00,0.000000,,2013-03-03 10:01:00,
2013-03-03 02:11:00,39.0,27.0,-100.00,SW,221,8.0,15.0,63,0.00,,,0.00,0.000000,,2013-03-03 10:11:00,
2013-03-03 02:32:00,36.0,29.0,-100.00,North,356,4.0,14.0,77,0.00,,,0.00,0.000000,,2013-03-03 10:32:00,
2013-03-03 02:42:00,36.0,29.0,-100.00,North,356,4.0,14.0,77,0.00,,,0.00,0.000000,,2013-03-03 10:42:00,
2013-03-03 02:52:00,36.0,29.0,-100.00,North,356,4.0,14.0,77,0.00,,,0.00,0.000000,,2013-03-03 10:52:00,
2013-03-03 03:01:00,36.0,29.0,-100.00,North,356,4.0,14.0,77,0.00,,,0.00,0.000000,,2013-03-03 11:01:00,
2013-03-03 03:11:00,36.0,29.0,-100.00,North,356,4.0,14.0,77,0.00,,,0.00,0.000000,,2013-03-03 11:11:00,
2013-03-03 03:32:00,33.0,29.0,-100.00,ESE,117,1.0,5.0,85,0.00,,,0.00,0.000000,,2013-03-03 11:32:00,
2013-03-03 03:42:00,33.0,29.0,-100.00,ESE,117,1.0,5.0,85,0.00,,,0.00,0.000000,,2013-03-03 11:42:00,
2013-03-03 03:52:00,33.0,29.0,-100.00,ESE,117,1.0,5.0,85,0.00,,,0.00,0.000000,,2013-03-03 11:52:00,
2013-03-03 04:01:00,33.0,29.0,-100.00,ESE,117,1.0,5.0,85,0.00,,,0.00,0.000000,,2013-03-03 12:01:00,
2013-03-03 04:11:00,33.0,29.0,-100.00,ESE,117,1.0,5.0,85,0.00,,,0.00,0.000000,,2013-03-03 12:11:00,
2013-03-03 04:32:00,32.0,29.0,-100.00,NNE,16,3.0,6.0,87,0.00,,,0.00,0.000000,,2013-03-03 12:32:00,
2013-03-03 04:43:00,32.0,29.0,-100.00,NNE,16,3.0,6.0,87,0.00,,,0.00,0.000000,,2013-03-03 12:43:00,
2013-03-03 04:52:00,32.0,29.0,-100.00,NNE,16,3.0,6.0,87,0.00,,,0.00,0.000000,,2013-03-03 12:52:00,
2013-03-03 05:01:00,32.0,29.0,-100.00,NNE,16,3.0,6.0,87,0.00,,,0.00,0.000000,,2013-03-03 13:01:00,
2013-03-03 05:11:00,32.0,29.0,-100.00,NNE,16,3.0,6.0,87,0.00,,,0.00,0.000000,,2013-03-03 13:11:00,
2013-03-03 05:42:00,31.0,26.0,-100.00,NNW,342,7.0,12.0,81,0.00,,,0.00,0.000000,,2013-03-03 13:42:00,
2013-03-03 05:52:00,31.0,26.0,-100.00,NNW,342,7.0,12.0,81,0.00,,,0.00,0.000000,,2013-03-03 13:52:00,
2013-03-03 06:01:00,31.0,26.0,-100.00,NNW,342,7.0,12.0,81,0.00,,,0.00,0.000000,,2013-03-03 14:01:00,
2013-03-03 06:11:00,31.0,26.0,-100.00,NNW,342,7.0,12.0,81,0.00,,,0.00,0.000000,,2013-03-03 14:11:00,
2013-03-03 06:32:00,30.0,26.0,-100.00,ENE,58,2.0,10.0,86,0.00,,,0.00,0.000000,,2013-03-03 14:32:00,
2013-03-03 06:42:00,30.0,26.0,-100.00,ENE,58,2.0,10.0,86,0.00,,,0.00,0.000000,,2013-03-03 14:42:00,
2013-03-03 06:52:00,30.0,26.0,-100.00,ENE,58,2.0,10.0,86,0.00,,,0.00,0.000000,,2013-03-03 14:52:00,
2013-03-03 07:01:00,30.0,26.0,-100.00,ENE,58,2.0,10.0,86,0.00,,,0.00,0.000000,,2013-03-03 15:01:00,
2013-03-03 07:11:00,30.0,26.0,-100.00,ENE,58,2.0,10.0,86,0.00,,,0.00,0.000000,,2013-03-03 15:11:00,
2013-03-03 07:32:00,28.0,22.0,-100.00,NNE,23,3.0,9.0,79,0.00,,,0.00,6.000000,,2013-03-03 15:32:00,
2013-03-03 07:42:00,28.0,22.0,-100.00,NNE,23,3.0,9.0,79,0.00,,,0.00,6.000000,,2013-03-03 15:42:00,
2013-03-03 07:52:00,28.0,22.0,-100.00,NNE,23,3.0,9.0,79,0.00,,,0.00,6.000000,,2013-03-03 15:52:00,
2013-03-03 08:01:00,28.0,22.0,-100.00,NNE,23,3.0,9.0,79,0.00,,,0.00,6.000000,,2013-03-03 16:01:00,
2013-03-03 08:11:00,28.0,22.0,-100.00,NNE,23,3.0,9.0,79,0.00,,,0.00,6.000000,,2013-03-03 16:11:00,
2013-03-03 08:32:00,29.0,22.0,-100.00,NNE,32,4.0,9.0,76,0.00,,,0.00,68.000000,,2013-03-03 16:32:00,
2013-03-03 08:42:00,29.0,22.0,-100.00,NNE,32,4.0,9.0,76,0.00,,,0.00,68.000000,,2013-03-03 16:42:00,
2013-03-03 08:52:00,29.0,22.0,-100.00,NNE,32,4.0,9.0,76,0.00,,,0.00,68.000000,,2013-03-03 16:52:00,
2013-03-03 09:01:00,29.0,22.0,-100.00,NNE,32,4.0,9.0,76,0.00,,,0.00,68.000000,,2013-03-03 17:01:00,
2013-03-03 09:11:00,29.0,22.0,-100.00,NNE,32,4.0,9.0,76,0.00,,,0.00,68.000000,,2013-03-03 17:11:00,
2013-03-03 09:42:00,33.0,22.0,-100.00,WNW,286,2.0,6.0,64,0.00,,,0.00,223.000000,,2013-03-03 17:42:00,
2013-03-03 09:52:00,33.0,22.0,-100.00,WNW,286,2.0,6.0,64,0.00,,,0.00,223.000000,,2013-03-03 17:52:00,
2013-03-03 10:01:00,33.0,22.0,-100.00,WNW,286,2.0,6.0,64,0.00,,,0.00,223.000000,,2013-03-03 18:01:00,
2013-03-03 10:11:00,33.0,22.0,-100.00,WNW,286,2.0,6.0,64,0.00,,,0.00,223.000000,,2013-03-03 18:11:00,
2013-03-03 10:32:00,36.0,19.0,-100.00,NNE,23,4.0,7.0,50,0.00,,,0.00,494.000000,,2013-03-03 18:32:00,
2013-03-03 10:42:00,36.0,19.0,-100.00,NNE,23,4.0,7.0,50,0.00,,,0.00,494.000000,,2013-03-03 18:42:00,
2013-03-03 10:52:00,36.0,19.0,-100.00,NNE,23,4.0,7.0,50,0.00,,,0.00,494.000000,,2013-03-03 18:52:00,
2013-03-03 11:01:00,36.0,19.0,-100.00,NNE,23,4.0,7.0,50,0.00,,,0.00,494.000000,,2013-03-03 19:01:00,
2013-03-03 11:11:00,36.0,19.0,-100.00,NNE,23,4.0,7.0,50,0.00,,,0.00,494.000000,,2013-03-03 19:11:00,
2013-03-03 11:42:00,38.0,12.0,-100.00,NNE,17,4.0,9.0,34,0.00,,,0.00,646.000000,,2013-03-03 19:42:00,
2013-03-03 11:52:00,38.0,12.0,-100.00,NNE,17,4.0,9.0,34,0.00,,,0.00,646.000000,,2013-03-03 19:52:00,
2013-03-03 12:01:00,38.0,12.0,-100.00,NNE,17,4.0,9.0,34,0.00,,,0.00,646.000000,,2013-03-03 20:01:00,
2013-03-03 12:11:00,38.0,12.0,-100.00,NNE,17,4.0,9.0,34,0.00,,,0.00,646.000000,,2013-03-03 20:11:00,
2013-03-03 12:32:00,41.0,6.0,-100.00,NNW,331,6.0,11.0,23,0.00,,,-99.99,720.000000,,2013-03-03 20:32:00,
2013-03-03 12:42:00,41.0,6.0,-100.00,NNW,331,6.0,11.0,23,0.00,,,-99.99,720.000000,,2013-03-03 20:42:00,
2013-03-03 12:52:00,41.0,6.0,-100.00,NNW,331,6.0,11.0,23,0.00,,,-99.99,720.000000,,2013-03-03 20:52:00,
2013-03-03 13:01:00,41.0,6.0,-100.00,NNW,331,6.0,11.0,23,0.00,,,-99.99,720.000000,,2013-03-03 21:01:00,
2013-03-03 13:11:00,41.0,6.0,-100.00,NNW,331,6.0,11.0,23,0.00,,,-99.99,720.000000,,2013-03-03 21:11:00,
2013-03-03 13:42:00,42.0,7.0,-100.00,NNW,341,5.0,12.0,23,0.00,,,0.00,726.000000,,2013-03-03 21:42:00,
2013-03-03 13:52:00,42.0,7.0,-100.00,NNW,341,5.0,12.0,23,0.00,,,0.00,726.000000,,2013-03-03 21:52:00,
2013-03-03 14:01:00,42.0,7.0,-100.00,NNW,341,5.0,12.0,23,0.00,,,0.00,726.000000,,2013-03-03 22:01:00,
2013-03-03 14:11:00,42.0,7.0,-100.00,NNW,341,5.0,12.0,23,0.00,,,0.00,726.000000,,2013-03-03 22:11:00,
2013-03-03 14:32:00,43.0,9.0,-100.00,NE,43,5.0,12.0,24,0.00,,,0.00,665.000000,,2013-03-03 22:32:00,
2013-03-03 14:42:00,43.0,9.0,-100.00,NE,43,5.0,12.0,24,0.00,,,0.00,665.000000,,2013-03-03 22:42:00,
2013-03-03 14:52:00,43.0,9.0,-100.00,NE,43,5.0,12.0,24,0.00,,,0.00,665.000000,,2013-03-03 22:52:00,
2013-03-03 15:01:00,43.0,9.0,-100.00,NE,43,5.0,12.0,24,0.00,,,0.00,665.000000,,2013-03-03 23:01:00,
2013-03-03 15:11:00,43.0,9.0,-100.00,NE,43,5.0,12.0,24,0.00,,,0.00,665.000000,,2013-03-03 23:11:00,
2013-03-03 15:32:00,43.0,8.0,-100.00,NNE,14,5.0,12.0,23,0.00,,,0.00,546.000000,,2013-03-03 23:32:00,
2013-03-03 15:42:00,43.0,8.0,-100.00,NNE,14,5.0,12.0,23,0.00,,,0.00,546.000000,,2013-03-03 23:42:00,
2013-03-03 15:52:00,43.0,8.0,-100.00,NNE,14,5.0,12.0,23,0.00,,,0.00,546.000000,,2013-03-03 23:52:00,
2013-03-03 16:01:00,43.0,8.0,-100.00,NNE,14,5.0,12.0,23,0.00,,,0.00,546.000000,,2013-03-04 00:01:00,
2013-03-03 16:11:00,43.0,8.0,-100.00,NNE,14,5.0,12.0,23,0.00,,,0.00,546.000000,,2013-03-04 00:11:00,
2013-03-03 16:32:00,43.0,10.0,-100.00,NE,36,5.0,9.0,25,0.00,,,0.00,367.000000,,2013-03-04 00:32:00,
2013-03-03 16:42:00,43.0,10.0,-100.00,NE,36,5.0,9.0,25,0.00,,,0.00,367.000000,,2013-03-04 00:42:00,
2013-03-03 16:52:00,43.0,10.0,-100.00,NE,36,5.0,9.0,25,0.00,,,0.00,367.000000,,2013-03-04 00:52:00,
2013-03-03 17:01:00,43.0,10.0,-100.00,NE,36,5.0,9.0,25,0.00,,,0.00,367.000000,,2013-03-04 01:01:00,
2013-03-03 17:11:00,43.0,10.0,-100.00,NE,36,5.0,9.0,25,0.00,,,0.00,367.000000,,2013-03-04 01:11:00,
2013-03-03 17:32:00,40.0,10.0,-100.00,NNE,21,3.0,9.0,29,0.00,,,0.00,167.000000,,2013-03-04 01:32:00,
2013-03-03 17:42:00,40.0,10.0,-100.00,NNE,21,3.0,9.0,29,0.00,,,0.00,167.000000,,2013-03-04 01:42:00,
2013-03-03 17:52:00,40.0,10.0,-100.00,NNE,21,3.0,9.0,29,0.00,,,0.00,167.000000,,2013-03-04 01:52:00,
2013-03-03 18:01:00,40.0,10.0,-100.00,NNE,21,3.0,9.0,29,0.00,,,0.00,167.000000,,2013-03-04 02:01:00,
2013-03-03 18:11:00,40.0,10.0,-100.00,NNE,21,3.0,9.0,29,0.00,,,0.00,167.000000,,2013-03-04 02:11:00,
2013-03-03 18:42:00,33.0,10.0,-100.00,North,1,1.0,6.0,37,0.00,,,0.00,27.000000,,2013-03-04 02:42:00,
2013-03-03 18:52:00,33.0,10.0,-100.00,North,1,1.0,6.0,37,0.00,,,0.00,27.000000,,2013-03-04 02:52:00,
2013-03-03 19:01:00,33.0,10.0,-100.00,North,1,1.0,6.0,37,0.00,,,0.00,27.000000,,2013-03-04 03:01:00,
2013-03-03 19:11:00,33.0,10.0,-100.00,North,1,1.0,6.0,37,0.00,,,0.00,27.000000,,2013-03-04 03:11:00,
2013-03-03 19:32:00,29.0,11.0,-100.00,NNW,340,4.0,7.0,46,0.00,,,0.00,0.000000,,2013-03-04 03:32:00,
2013-03-03 19:42:00,29.0,11.0,-100.00,NNW,340,4.0,7.0,46,0.00,,,0.00,0.000000,,2013-03-04 03:42:00,
2013-03-03 19:52:00,29.0,11.0,-100.00,NNW,340,4.0,7.0,46,0.00,,,0.00,0.000000,,2013-03-04 03:52:00,
2013-03-03 20:01:00,29.0,11.0,-100.00,NNW,340,4.0,7.0,46,0.00,,,0.00,0.000000,,2013-03-04 04:01:00,
2013-03-03 20:11:00,29.0,11.0,-100.00,NNW,340,4.0,7.0,46,0.00,,,0.00,0.000000,,2013-03-04 04:11:00,
2013-03-03 20:32:00,26.0,10.0,-100.00,WNW,291,2.0,7.0,51,0.00,,,0.00,0.000000,,2013-03-04 04:32:00,
2013-03-03 20:42:00,26.0,10.0,-100.00,WNW,291,2.0,7.0,51,0.00,,,0.00,0.000000,,2013-03-04 04:42:00,
2013-03-03 20:52:00,26.0,10.0,-100.00,WNW,291,2.0,7.0,51,0.00,,,0.00,0.000000,,2013-03-04 04:52:00,
2013-03-03 21:01:00,26.0,10.0,-100.00,WNW,291,2.0,7.0,51,0.00,,,0.00,0.000000,,2013-03-04 05:01:00,
2013-03-03 21:11:00,26.0,10.0,-100.00,WNW,291,2.0,7.0,51,0.00,,,0.00,0.000000,,2013-03-04 05:11:00,
2013-03-03 21:32:00,25.0,13.0,-100.00,ENE,57,1.0,4.0,59,0.00,,,0.00,0.000000,,2013-03-04 05:32:00,
2013-03-03 21:42:00,25.0,13.0,-100.00,ENE,57,1.0,4.0,59,0.00,,,0.00,0.000000,,2013-03-04 05:42:00,
2013-03-03 21:52:00,25.0,13.0,-100.00,ENE,57,1.0,4.0,59,0.00,,,0.00,0.000000,,2013-03-04 05:52:00,
2013-03-03 22:01:00,25.0,13.0,-100.00,ENE,57,1.0,4.0,59,0.00,,,0.00,0.000000,,2013-03-04 06:01:00,
2013-03-03 22:11:00,25.0,13.0,-100.00,ENE,57,1.0,4.0,59,0.00,,,0.00,0.000000,,2013-03-04 06:11:00,
2013-03-03 22:32:00,23.0,14.0,-100.00,West,271,4.0,5.0,69,0.00,,,0.00,0.000000,,2013-03-04 06:32:00,
2013-03-03 22:42:00,23.0,14.0,-100.00,West,271,4.0,5.0,69,0.00,,,0.00,0.000000,,2013-03-04 06:42:00,
2013-03-03 22:52:00,23.0,14.0,-100.00,West,271,4.0,5.0,69,0.00,,,0.00,0.000000,,2013-03-04 06:52:00,
2013-03-03 23:01:00,23.0,14.0,-100.00,West,271,4.0,5.0,69,0.00,,,0.00,0.000000,,2013-03-04 07:01:00,
2013-03-03 23:11:00,23.0,14.0,-100.00,West,271,4.0,5.0,69,0.00,,,0.00,0.000000,,2013-03-04 07:11:00,
2013-03-03 23:32:00,24.0,15.0,-100.00,WNW,291,4.0,6.0,69,0.00,,,0.00,0.000000,,2013-03-04 07:32:00,
2013-03-03 23:42:00,24.0,15.0,-100.00,WNW,291,4.0,6.0,69,0.00,,,0.00,0.000000,,2013-03-04 07:42:00,
2013-03-03 23:52:00,24.0,15.0,-100.00,WNW,291,4.0,6.0,69,0.00,,,0.00,0.000000,,2013-03-04 07:52:00,